| time (UTC) | temp F | wind direction | speed knots | gust knots | rain 1hr in | rain 24hr in | rain mn in | humidity % | barometer mb |
| 20260901203612 | 80 | 0 | 0.9 | 1.7 | 0.00 | 0.00 | 0.00 | 23 | 1009.0 |
| 20260901203112 | 80 | 13 | 0.9 | 1.7 | 0.00 | 0.00 | 0.00 | 26 | 1009.1 |
| 20260901202607 | 80 | 0 | 0.9 | 1.7 | 0.00 | 0.00 | 0.00 | 24 | 1009.1 |
| 20260901201608 | 79 | 82 | 0.0 | 1.7 | 0.00 | 0.00 | 0.00 | 25 | 1009.3 |
| 20260901201107 | 79 | 82 | 0.0 | 2.6 | 0.00 | 0.00 | 0.00 | 27 | 1009.3 |
| 20260901200607 | 78 | 90 | 0.9 | 2.6 | 0.00 | 0.00 | 0.00 | 25 | 1009.3 |
| 20260901195607 | 78 | 35 | 0.9 | 1.7 | 0.00 | 0.00 | 0.00 | 29 | 1009.4 |
| 20260901195109 | 77 | 5 | 0.9 | 2.6 | 0.00 | 0.00 | 0.00 | 25 | 1009.4 |
| 20260901194103 | 77 | 0 | 0.0 | 1.7 | 0.00 | 0.00 | 0.00 | 29 | 1009.5 |
| 20260901193604 | 76 | 355 | 0.0 | 1.7 | 0.00 | 0.00 | 0.00 | 28 | 1009.6 |
| 20260901193103 | 76 | 350 | 0.9 | 1.7 | 0.00 | 0.00 | 0.00 | 28 | 1009.8 |
| 20260901192603 | 76 | 74 | 0.0 | 1.7 | 0.00 | 0.00 | 0.00 | 31 | 1010.0 |
| 20260901192102 | 75 | 76 | 0.9 | 1.7 | 0.00 | 0.00 | 0.00 | 29 | 1010.1 |
| 20260901191604 | 74 | 67 | 0.9 | 1.7 | 0.00 | 0.00 | 0.00 | 30 | 1010.1 |
| 20260901191103 | 74 | 62 | 0.9 | 1.7 | 0.00 | 0.00 | 0.00 | 31 | 1010.2 |
| 20260901190602 | 73 | 61 | 0.9 | 1.7 | 0.00 | 0.00 | 0.00 | 30 | 1010.3 |
| 20260901185602 | 73 | 87 | 0.9 | 2.6 | 0.00 | 0.00 | 0.00 | 32 | 1010.5 |
| 20260901185103 | 72 | 86 | 0.9 | 2.6 | 0.00 | 0.00 | 0.00 | 33 | 1010.6 |
| 20260901184603 | 72 | 56 | 0.9 | 1.7 | 0.00 | 0.00 | 0.00 | 31 | 1010.7 |
| 20260901184103 | 72 | 355 | 0.0 | 0.9 | 0.00 | 0.00 | 0.00 | 31 | 1010.9 |
| 20260901183605 | 71 | 12 | 0.9 | 1.7 | 0.00 | 0.00 | 0.00 | 29 | 1010.9 |
| 20260901183102 | 71 | 17 | 0.9 | 1.7 | 0.00 | 0.00 | 0.00 | 31 | 1011.0 |
| 20260901182606 | 71 | 17 | 0.9 | 1.7 | 0.00 | 0.00 | 0.00 | 28 | 1011.2 |
| 20260901182109 | 70 | 41 | 0.9 | 1.7 | 0.00 | 0.00 | 0.00 | 29 | 1011.3 |
| 20260901181606 | 70 | 62 | 0.9 | 1.7 | 0.00 | 0.00 | 0.00 | 32 | 1011.3 |
| 20260901181104 | 69 | 21 | 0.0 | 1.7 | 0.00 | 0.00 | 0.00 | 32 | 1011.4 |
| 20260901180602 | 68 | 11 | 0.0 | 1.7 | 0.00 | 0.00 | 0.00 | 34 | 1011.4 |
| 20260901180105 | 68 | 15 | 0.0 | 1.7 | 0.00 | 0.00 | 0.00 | 35 | 1011.6 |
| 20260901175607 | 67 | 0 | 0.0 | 1.7 | 0.00 | 0.00 | 0.00 | 35 | 1011.6 |
| 20260901175106 | 67 | 0 | 0.9 | 2.6 | 0.00 | 0.00 | 0.00 | 36 | 1011.7 |
| 20260901174606 | 67 | 0 | 0.9 | 2.6 | 0.00 | 0.00 | 0.00 | 40 | 1011.9 |
| 20260901174106 | 66 | 0 | 0.9 | 2.6 | 0.00 | 0.00 | 0.00 | 39 | 1011.9 |
| 20260901173606 | 66 | 0 | 0.9 | 1.7 | 0.00 | 0.00 | 0.00 | 39 | 1012.0 |
| 20260901173103 | 65 | 0 | 0.9 | 2.6 | 0.00 | 0.00 | 0.00 | 41 | 1012.0 |
| 20260901172604 | 65 | 0 | 1.7 | 2.6 | 0.00 | 0.00 | 0.00 | 39 | 1012.1 |
| 20260901172102 | 64 | 0 | 1.7 | 2.6 | 0.00 | 0.00 | 0.00 | 38 | 1012.0 |
| 20260901171602 | 64 | 0 | 1.7 | 2.6 | 0.00 | 0.00 | 0.00 | 41 | 1012.2 |
| 20260901171103 | 63 | 0 | 1.7 | 2.6 | 0.00 | 0.00 | 0.00 | 44 | 1012.2 |
| 20260901170602 | 63 | 0 | 1.7 | 2.6 | 0.00 | 0.00 | 0.00 | 44 | 1012.2 |
| 20260901165603 | 62 | 0 | 0.9 | 1.7 | 0.00 | 0.00 | 0.00 | 47 | 1012.2 |
| 20260901165058 | 62 | 0 | 0.9 | 2.6 | 0.00 | 0.00 | 0.00 | 47 | 1012.4 |
| 20260901164558 | 62 | 0 | 0.9 | 2.6 | 0.00 | 0.00 | 0.00 | 47 | 1012.2 |
| 20260901164058 | 61 | 0 | 0.9 | 2.6 | 0.00 | 0.00 | 0.00 | 49 | 1012.2 |
| 20260901163556 | 61 | 0 | 0.9 | 2.6 | 0.00 | 0.00 | 0.00 | 48 | 1012.2 |
| 20260901163055 | 61 | 0 | 0.9 | 2.6 | 0.00 | 0.00 | 0.00 | 49 | 1012.0 |
| 20260901162056 | 59 | 0 | 0.9 | 2.6 | 0.00 | 0.00 | 0.00 | 53 | 1012.2 |
| 20260901161558 | 59 | 0 | 0.9 | 1.7 | 0.00 | 0.00 | 0.00 | 53 | 1012.4 |
| 20260901161057 | 58 | 0 | 0.9 | 2.6 | 0.00 | 0.00 | 0.00 | 53 | 1012.4 |
| 20260901160558 | 58 | 0 | 1.7 | 2.6 | 0.00 | 0.00 | 0.00 | 53 | 1012.5 |
| 20260901160055 | 58 | 0 | 1.7 | 2.6 | 0.00 | 0.00 | 0.00 | 53 | 1012.4 |
| 20260901155555 | 58 | 0 | 0.9 | 2.6 | 0.00 | 0.00 | 0.00 | 56 | 1012.4 |
| 20260901155056 | 57 | 0 | 1.7 | 2.6 | 0.00 | 0.00 | 0.00 | 55 | 1012.5 |
| 20260901154548 | 57 | 0 | 1.7 | 3.5 | 0.00 | 0.00 | 0.00 | 55 | 1012.5 |
| 20260901154046 | 57 | 0 | 1.7 | 3.5 | 0.00 | 0.00 | 0.00 | 55 | 1012.5 |
| 20260901153547 | 57 | 0 | 1.7 | 3.5 | 0.00 | 0.00 | 0.00 | 56 | 1012.5 |
| 20260901152544 | 56 | 0 | 2.6 | 3.5 | 0.00 | 0.00 | 0.00 | 57 | 1012.4 |
| 20260901152046 | 56 | 0 | 1.7 | 3.5 | 0.00 | 0.00 | 0.00 | 58 | 1012.5 |
| 20260901151544 | 56 | 0 | 1.7 | 3.5 | 0.00 | 0.00 | 0.00 | 57 | 1012.6 |
| 20260901151040 | 56 | 0 | 1.7 | 3.5 | 0.00 | 0.00 | 0.00 | 57 | 1012.5 |
| 20260901150545 | 56 | 0 | 0.9 | 2.6 | 0.00 | 0.00 | 0.00 | 55 | 1012.6 |
| 20260901150040 | 56 | 0 | 0.9 | 2.6 | 0.00 | 0.00 | 0.00 | 55 | 1012.5 |
| 20260901145537 | 55 | 0 | 1.7 | 2.6 | 0.00 | 0.00 | 0.00 | 56 | 1012.5 |
| 20260901144540 | 54 | 0 | 0.9 | 3.5 | 0.00 | 0.00 | 0.00 | 59 | 1012.4 |
| 20260901144040 | 54 | 0 | 0.9 | 2.6 | 0.00 | 0.00 | 0.00 | 65 | 1012.2 |
| 20260901143538 | 54 | 0 | 0.9 | 2.6 | 0.00 | 0.00 | 0.00 | 66 | 1012.1 |
| 20260901143037 | 53 | 0 | 0.9 | 2.6 | 0.00 | 0.00 | 0.00 | 64 | 1012.2 |
| 20260901142535 | 52 | 0 | 0.0 | 0.0 | 0.00 | 0.00 | 0.00 | 64 | 1012.1 |
| 20260901142031 | 51 | 0 | 0.0 | 0.0 | 0.00 | 0.00 | 0.00 | 71 | 1012.1 |
| 20260901141532 | 49 | 310 | 0.0 | 0.0 | 0.00 | 0.00 | 0.00 | 73 | 1012.2 |
| 20260901140533 | 47 | 309 | 0.0 | 0.0 | 0.00 | 0.00 | 0.00 | 70 | 1012.4 |
| 20260901135034 | 47 | 309 | 0.0 | 0.0 | 0.00 | 0.00 | 0.00 | 68 | 1012.2 |
| 20260901134532 | 47 | 309 | 0.0 | 0.0 | 0.00 | 0.00 | 0.00 | 69 | 1012.0 |
| 20260901134032 | 47 | 309 | 0.0 | 0.0 | 0.00 | 0.00 | 0.00 | 68 | 1011.9 |
| 20260901133030 | 47 | 309 | 0.0 | 0.0 | 0.00 | 0.00 | 0.00 | 69 | 1011.8 |
| 20260901132531 | 47 | 309 | 0.0 | 0.0 | 0.00 | 0.00 | 0.00 | 71 | 1011.8 |
| 20260901132032 | 47 | 309 | 0.0 | 0.0 | 0.00 | 0.00 | 0.00 | 72 | 1011.9 |
| 20260901131531 | 47 | 309 | 0.0 | 0.0 | 0.00 | 0.00 | 0.00 | 72 | 1011.8 |
| 20260901131032 | 47 | 309 | 0.0 | 0.0 | 0.00 | 0.00 | 0.00 | 70 | 1011.8 |
| 20260901130532 | 47 | 309 | 0.0 | 0.0 | 0.00 | 0.00 | 0.00 | 71 | 1011.7 |
| 20260901125531 | 47 | 309 | 0.0 | 0.0 | 0.00 | 0.00 | 0.00 | 70 | 1011.5 |
| 20260901125030 | 47 | 309 | 0.0 | 0.0 | 0.00 | 0.00 | 0.00 | 70 | 1011.6 |
| 20260901124532 | 47 | 309 | 0.0 | 0.0 | 0.00 | 0.00 | 0.00 | 71 | 1011.6 |
| 20260901124029 | 47 | 309 | 0.0 | 0.0 | 0.00 | 0.00 | 0.00 | 70 | 1011.6 |
| 20260901123525 | 47 | 309 | 0.0 | 0.0 | 0.00 | 0.00 | 0.00 | 70 | 1011.6 |
| 20260901123018 | 47 | 309 | 0.0 | 0.0 | 0.00 | 0.00 | 0.00 | 69 | 1011.5 |
| 20260901122518 | 47 | 309 | 0.0 | 0.0 | 0.00 | 0.00 | 0.00 | 69 | 1011.5 |
| 20260901122016 | 47 | 309 | 0.0 | 0.0 | 0.00 | 0.00 | 0.00 | 68 | 1011.6 |
| 20260901121515 | 48 | 309 | 0.0 | 0.0 | 0.00 | 0.00 | 0.00 | 68 | 1011.6 |
| 20260901121017 | 48 | 309 | 0.0 | 0.0 | 0.00 | 0.00 | 0.00 | 69 | 1011.6 |
| 20260901120515 | 48 | 309 | 0.0 | 0.0 | 0.00 | 0.00 | 0.00 | 68 | 1011.6 |
| 20260901120012 | 48 | 309 | 0.0 | 0.0 | 0.00 | 0.00 | 0.00 | 68 | 1011.7 |
| 20260901115512 | 48 | 309 | 0.0 | 0.0 | 0.00 | 0.00 | 0.00 | 67 | 1011.7 |
| 20260901115012 | 48 | 309 | 0.0 | 0.0 | 0.00 | 0.00 | 0.00 | 67 | 1011.6 |
| 20260901114510 | 48 | 309 | 0.0 | 0.0 | 0.00 | 0.00 | 0.00 | 67 | 1011.6 |
| 20260901114007 | 48 | 309 | 0.0 | 0.0 | 0.00 | 0.00 | 0.00 | 67 | 1011.6 |
| 20260901113509 | 48 | 309 | 0.0 | 0.0 | 0.00 | 0.00 | 0.00 | 67 | 1011.6 |
| 20260901113011 | 48 | 310 | 0.0 | 0.0 | 0.00 | 0.00 | 0.00 | 68 | 1011.6 |
| 20260901111504 | 48 | 310 | 0.0 | 0.0 | 0.00 | 0.00 | 0.00 | 67 | 1011.7 |
| 20260901111003 | 49 | 309 | 0.0 | 0.0 | 0.00 | 0.00 | 0.00 | 67 | 1011.6 |
| 20260901110502 | 49 | 309 | 0.0 | 0.0 | 0.00 | 0.00 | 0.00 | 66 | 1011.6 |
| 20260901110003 | 49 | 309 | 0.0 | 0.0 | 0.00 | 0.00 | 0.00 | 67 | 1011.5 |
| 20260901105504 | 49 | 309 | 0.0 | 0.0 | 0.00 | 0.00 | 0.00 | 67 | 1011.7 |
| 20260901105002 | 49 | 309 | 0.0 | 0.0 | 0.00 | 0.00 | 0.00 | 67 | 1011.6 |
| 20260901104504 | 49 | 310 | 0.0 | 0.0 | 0.00 | 0.00 | 0.00 | 67 | 1011.6 |
| 20260901103004 | 49 | 309 | 0.0 | 0.0 | 0.00 | 0.00 | 0.00 | 67 | 1011.5 |
| 20260901102005 | 49 | 309 | 0.9 | 2.6 | 0.00 | 0.00 | 0.00 | 68 | 1011.6 |
| 20260901101504 | 49 | 309 | 0.9 | 2.6 | 0.00 | 0.00 | 0.00 | 69 | 1011.6 |
| 20260901101003 | 49 | 292 | 0.0 | 0.0 | 0.00 | 0.00 | 0.00 | 70 | 1011.6 |
| 20260901100503 | 49 | 292 | 0.0 | 0.0 | 0.00 | 0.00 | 0.00 | 70 | 1011.7 |
| 20260901100004 | 49 | 292 | 0.0 | 0.0 | 0.00 | 0.00 | 0.00 | 69 | 1011.6 |
| 20260901095503 | 49 | 292 | 0.0 | 0.0 | 0.00 | 0.00 | 0.00 | 70 | 1011.7 |
| 20260901095002 | 49 | 293 | 0.0 | 0.0 | 0.00 | 0.00 | 0.00 | 69 | 1011.8 |
| 20260901094503 | 49 | 292 | 0.0 | 0.0 | 0.00 | 0.00 | 0.00 | 68 | 1011.8 |
| 20260901094002 | 50 | 293 | 0.0 | 0.0 | 0.00 | 0.00 | 0.00 | 70 | 1011.8 |
| 20260901093503 | 50 | 292 | 0.0 | 0.0 | 0.00 | 0.00 | 0.00 | 70 | 1011.8 |
| 20260901091503 | 51 | 291 | 0.0 | 0.0 | 0.00 | 0.00 | 0.00 | 68 | 1011.8 |
| 20260901091002 | 51 | 291 | 0.0 | 0.0 | 0.00 | 0.00 | 0.00 | 67 | 1011.8 |
| 20260901090506 | 51 | 291 | 0.0 | 0.0 | 0.00 | 0.00 | 0.00 | 67 | 1011.7 |
| 20260901090006 | 52 | 291 | 0.0 | 0.0 | 0.00 | 0.00 | 0.00 | 70 | 1011.7 |
| 20260901085506 | 52 | 291 | 0.0 | 0.0 | 0.00 | 0.00 | 0.00 | 69 | 1011.7 |
| 20260901085004 | 51 | 291 | 0.0 | 0.0 | 0.00 | 0.00 | 0.00 | 67 | 1011.8 |
| 20260901084506 | 51 | 291 | 0.0 | 0.0 | 0.00 | 0.00 | 0.00 | 66 | 1011.9 |
| 20260901084004 | 51 | 290 | 0.0 | 1.7 | 0.00 | 0.00 | 0.00 | 64 | 1011.9 |
| 20260901083503 | 52 | 290 | 0.9 | 2.6 | 0.00 | 0.00 | 0.00 | 64 | 1011.8 |
| 20260901082507 | 52 | 282 | 0.0 | 0.9 | 0.00 | 0.00 | 0.00 | 61 | 1011.9 |
| 20260901082005 | 52 | 283 | 0.0 | 0.9 | 0.00 | 0.00 | 0.00 | 60 | 1011.9 |
| 20260901081505 | 52 | 283 | 0.0 | 0.0 | 0.00 | 0.00 | 0.00 | 61 | 1011.9 |
| 20260901080503 | 52 | 283 | 0.0 | 0.9 | 0.00 | 0.00 | 0.00 | 61 | 1012.0 |
| 20260901075958 | 52 | 283 | 0.0 | 1.7 | 0.00 | 0.00 | 0.00 | 62 | 1012.0 |
| 20260901075453 | 53 | 283 | 0.9 | 1.7 | 0.00 | 0.00 | 0.00 | 63 | 1011.9 |
| 20260901074449 | 53 | 283 | 0.0 | 0.9 | 0.00 | 0.00 | 0.00 | 64 | 1012.0 |
| 20260901073450 | 53 | 283 | 0.0 | 0.9 | 0.00 | 0.00 | 0.00 | 63 | 1012.1 |
| 20260901072950 | 54 | 284 | 0.0 | 0.0 | 0.00 | 0.00 | 0.00 | 64 | 1012.0 |
| 20260901072445 | 54 | 284 | 0.0 | 0.9 | 0.00 | 0.00 | 0.00 | 64 | 1012.0 |
| 20260901071948 | 54 | 284 | 0.0 | 0.9 | 0.00 | 0.00 | 0.00 | 64 | 1012.0 |
| 20260901071443 | 54 | 284 | 0.0 | 1.7 | 0.00 | 0.00 | 0.00 | 65 | 1012.0 |
| 20260901070942 | 54 | 284 | 0.0 | 1.7 | 0.00 | 0.00 | 0.00 | 66 | 1012.1 |
| 20260901070440 | 54 | 284 | 0.0 | 0.0 | 0.00 | 0.00 | 0.00 | 66 | 1012.1 |
| 20260901065941 | 54 | 284 | 0.0 | 0.0 | 0.00 | 0.00 | 0.00 | 64 | 1012.1 |
| 20260901065440 | 54 | 284 | 0.0 | 0.0 | 0.00 | 0.00 | 0.00 | 63 | 1012.0 |
| 20260901064941 | 54 | 284 | 0.0 | 0.0 | 0.00 | 0.00 | 0.00 | 61 | 1012.0 |
| 20260901064436 | 54 | 284 | 0.0 | 1.7 | 0.00 | 0.00 | 0.00 | 60 | 1012.0 |
| 20260901063935 | 54 | 284 | 0.0 | 1.7 | 0.00 | 0.00 | 0.00 | 61 | 1012.0 |
| 20260901063431 | 53 | 16 | 0.0 | 0.0 | 0.00 | 0.00 | 0.00 | 76 | 1012.0 |
| 20260901062932 | 53 | 16 | 0.0 | 0.0 | 0.00 | 0.00 | 0.00 | 76 | 1012.0 |
| 20260901062430 | 53 | 16 | 0.0 | 0.0 | 0.00 | 0.00 | 0.00 | 77 | 1012.1 |
| 20260901061430 | 53 | 16 | 0.0 | 0.0 | 0.00 | 0.00 | 0.00 | 77 | 1012.5 |
| 20260901060424 | 54 | 16 | 0.0 | 0.0 | 0.00 | 0.00 | 0.00 | 79 | 1012.4 |
| 20260901055916 | 54 | 16 | 0.0 | 0.0 | 0.00 | 0.00 | 0.00 | 76 | 1012.5 |
| 20260901054904 | 55 | 16 | 0.0 | 0.0 | 0.00 | 0.00 | 0.00 | 73 | 1012.7 |
| 20260901054404 | 55 | 16 | 0.0 | 0.0 | 0.00 | 0.00 | 0.00 | 72 | 1012.8 |
| 20260901053905 | 55 | 16 | 0.0 | 0.0 | 0.00 | 0.00 | 0.00 | 71 | 1012.7 |
| 20260901052907 | 56 | 16 | 0.0 | 0.0 | 0.00 | 0.00 | 0.00 | 70 | 1012.7 |
| 20260901052403 | 56 | 16 | 0.0 | 0.0 | 0.00 | 0.00 | 0.00 | 71 | 1012.7 |
| 20260901051404 | 57 | 16 | 0.0 | 0.0 | 0.00 | 0.00 | 0.00 | 69 | 1012.8 |
| 20260901050403 | 57 | 16 | 0.0 | 0.0 | 0.00 | 0.00 | 0.00 | 65 | 1012.7 |
| 20260901045902 | 57 | 16 | 0.0 | 0.0 | 0.00 | 0.00 | 0.00 | 66 | 1012.8 |
| 20260901045405 | 57 | 16 | 0.0 | 0.0 | 0.00 | 0.00 | 0.00 | 65 | 1012.9 |
| 20260901044905 | 57 | 16 | 0.0 | 0.0 | 0.00 | 0.00 | 0.00 | 68 | 1013.0 |
| 20260901044407 | 58 | 16 | 0.0 | 0.0 | 0.00 | 0.00 | 0.00 | 69 | 1013.0 |
| 20260901043904 | 58 | 16 | 0.0 | 0.0 | 0.00 | 0.00 | 0.00 | 68 | 1012.9 |
| 20260901043406 | 58 | 16 | 0.0 | 0.0 | 0.00 | 0.00 | 0.00 | 72 | 1013.0 |
| 20260901042904 | 58 | 16 | 0.0 | 0.0 | 0.00 | 0.00 | 0.00 | 73 | 1013.0 |
| 20260901042404 | 59 | 16 | 0.0 | 0.0 | 0.00 | 0.00 | 0.00 | 75 | 1013.1 |
| 20260901041905 | 59 | 16 | 0.0 | 0.0 | 0.00 | 0.00 | 0.00 | 75 | 1013.1 |
| 20260901041404 | 59 | 16 | 0.0 | 0.0 | 0.00 | 0.00 | 0.00 | 74 | 1013.1 |
| 20260901040905 | 59 | 17 | 0.0 | 0.0 | 0.00 | 0.00 | 0.00 | 74 | 1013.1 |
| 20260901040406 | 60 | 17 | 0.0 | 0.0 | 0.00 | 0.00 | 0.00 | 72 | 1013.1 |
| 20260901035903 | 60 | 17 | 0.0 | 0.0 | 0.00 | 0.00 | 0.00 | 71 | 1013.1 |
| 20260901035403 | 61 | 17 | 0.0 | 0.0 | 0.00 | 0.00 | 0.00 | 69 | 1013.1 |
| 20260901034906 | 61 | 17 | 0.0 | 0.0 | 0.00 | 0.00 | 0.00 | 68 | 1013.0 |
| 20260901034407 | 62 | 17 | 0.0 | 0.0 | 0.00 | 0.00 | 0.00 | 69 | 1013.0 |
| 20260901033905 | 63 | 17 | 0.0 | 0.0 | 0.00 | 0.00 | 0.00 | 68 | 1012.9 |
| 20260901033405 | 63 | 17 | 0.0 | 0.0 | 0.00 | 0.00 | 0.00 | 66 | 1012.9 |
| 20260901032905 | 63 | 17 | 0.0 | 0.0 | 0.00 | 0.00 | 0.00 | 63 | 1012.9 |
| 20260901032405 | 64 | 16 | 0.0 | 0.0 | 0.00 | 0.00 | 0.00 | 64 | 1013.0 |
| 20260901031903 | 64 | 17 | 0.0 | 0.0 | 0.00 | 0.00 | 0.00 | 60 | 1012.9 |
| 20260901031404 | 65 | 16 | 0.0 | 0.0 | 0.00 | 0.00 | 0.00 | 60 | 1012.9 |
| 20260901030903 | 65 | 17 | 0.0 | 0.0 | 0.00 | 0.00 | 0.00 | 59 | 1012.8 |
| 20260901030403 | 66 | 17 | 0.0 | 0.0 | 0.00 | 0.00 | 0.00 | 59 | 1012.9 |
| 20260901025902 | 66 | 17 | 0.0 | 0.0 | 0.00 | 0.00 | 0.00 | 59 | 1012.8 |
| 20260901024903 | 67 | 16 | 0.0 | 0.0 | 0.00 | 0.00 | 0.00 | 53 | 1012.7 |
| 20260901024403 | 67 | 17 | 0.0 | 0.0 | 0.00 | 0.00 | 0.00 | 53 | 1012.7 |
| 20260901023903 | 67 | 16 | 0.0 | 0.0 | 0.00 | 0.00 | 0.00 | 49 | 1012.7 |
| 20260901022903 | 68 | 16 | 0.0 | 0.0 | 0.00 | 0.00 | 0.00 | 46 | 1012.5 |
| 20260901022403 | 68 | 16 | 0.0 | 0.9 | 0.00 | 0.00 | 0.00 | 46 | 1012.5 |
| 20260901021907 | 69 | 16 | 0.0 | 0.9 | 0.00 | 0.00 | 0.00 | 45 | 1012.5 |
| 20260901020909 | 70 | 17 | 0.0 | 0.9 | 0.00 | 0.00 | 0.00 | 43 | 1012.5 |
| 20260901015405 | 71 | 51 | 0.0 | 1.7 | 0.00 | 0.00 | 0.00 | 45 | 1012.6 |
| 20260901014904 | 71 | 226 | 0.0 | 0.0 | 0.00 | 0.00 | 0.00 | 40 | 1012.6 |
| 20260901014402 | 71 | 226 | 0.0 | 0.0 | 0.00 | 0.00 | 0.00 | 40 | 1012.7 |
| 20260901013905 | 71 | 226 | 0.0 | 0.0 | 0.00 | 0.00 | 0.00 | 40 | 1012.8 |
| 20260901013402 | 72 | 226 | 0.0 | 0.0 | 0.00 | 0.00 | 0.00 | 39 | 1012.8 |
| 20260901012905 | 72 | 251 | 0.0 | 0.9 | 0.00 | 0.00 | 0.00 | 39 | 1012.8 |
| 20260901010903 | 74 | 249 | 0.9 | 4.3 | 0.00 | 0.00 | 0.00 | 37 | 1012.9 |
| 20260901010401 | 74 | 254 | 0.9 | 4.3 | 0.00 | 0.00 | 0.00 | 37 | 1012.8 |
| 20260901005900 | 74 | 226 | 0.9 | 4.3 | 0.00 | 0.00 | 0.00 | 38 | 1012.8 |
| 20260901005400 | 74 | 174 | 0.9 | 4.3 | 0.00 | 0.00 | 0.00 | 36 | 1013.0 |
| 20260901004356 | 75 | 218 | 0.9 | 4.3 | 0.00 | 0.00 | 0.00 | 35 | 1013.0 |
| 20260901003855 | 75 | 147 | 0.0 | 3.5 | 0.00 | 0.00 | 0.00 | 35 | 1013.0 |
| 20260901003354 | 75 | 199 | 0.0 | 3.5 | 0.00 | 0.00 | 0.00 | 35 | 1013.1 |
| 20260901002854 | 76 | 227 | 0.0 | 3.5 | 0.00 | 0.00 | 0.00 | 36 | 1013.2 |
| 20260901002358 | 76 | 155 | 0.9 | 4.3 | 0.00 | 0.00 | 0.00 | 35 | 1013.2 |
| 20260901001852 | 77 | 225 | 0.9 | 4.3 | 0.00 | 0.00 | 0.00 | 34 | 1013.3 |
| 20260901001349 | 77 | 192 | 0.9 | 2.6 | 0.00 | 0.00 | 0.00 | 34 | 1013.4 |
| 20260901000850 | 76 | 179 | 0.9 | 4.3 | 0.00 | 0.00 | 0.00 | 35 | 1013.4 |
| 20260901000347 | 76 | 198 | 0.9 | 4.3 | 0.00 | 0.00 | 0.00 | 35 | 1013.4 |
| 20260831235848 | 76 | 232 | 0.9 | 3.5 | 0.00 | 0.00 | 0.00 | 37 | 1013.6 |
| 20260831235346 | 76 | 161 | 0.9 | 3.5 | 0.00 | 0.00 | 0.00 | 35 | 1013.6 |
| 20260831234345 | 76 | 278 | 0.9 | 3.5 | 0.00 | 0.00 | 0.00 | 35 | 1013.7 |
| 20260831233847 | 76 | 236 | 0.9 | 3.5 | 0.00 | 0.00 | 0.00 | 36 | 1013.7 |
| 20260831233345 | 77 | 202 | 0.9 | 2.6 | 0.00 | 0.00 | 0.00 | 35 | 1013.7 |
| 20260831232840 | 77 | 220 | 0.9 | 1.7 | 0.00 | 0.00 | 0.00 | 35 | 1013.8 |
| 20260831232344 | 78 | 272 | 0.9 | 2.6 | 0.00 | 0.00 | 0.00 | 36 | 1013.8 |
| 20260831231842 | 78 | 232 | 0.9 | 2.6 | 0.00 | 0.00 | 0.00 | 34 | 1013.8 |
| 20260831231340 | 78 | 46 | 0.9 | 5.2 | 0.00 | 0.00 | 0.00 | 34 | 1013.8 |
| 20260831230842 | 79 | 138 | 0.9 | 5.2 | 0.00 | 0.00 | 0.00 | 32 | 1013.9 |
| 20260831230345 | 80 | 270 | 0.9 | 3.5 | 0.00 | 0.00 | 0.00 | 32 | 1014.0 |
| 20260831225343 | 80 | 331 | 0.9 | 2.6 | 0.00 | 0.00 | 0.00 | 32 | 1014.0 |
| 20260831224341 | 80 | 174 | 0.9 | 3.5 | 0.00 | 0.00 | 0.00 | 32 | 1014.1 |
| 20260831223840 | 79 | 229 | 0.9 | 3.5 | 0.00 | 0.00 | 0.00 | 33 | 1014.1 |
| 20260831223340 | 79 | 250 | 0.9 | 3.5 | 0.00 | 0.00 | 0.00 | 33 | 1014.1 |
| 20260831222837 | 78 | 238 | 0.9 | 5.2 | 0.00 | 0.00 | 0.00 | 35 | 1014.0 |
| 20260831222337 | 77 | 227 | 1.7 | 5.2 | 0.00 | 0.00 | 0.00 | 34 | 1014.1 |
| 20260831221837 | 77 | 215 | 1.7 | 4.3 | 0.00 | 0.00 | 0.00 | 35 | 1014.1 |
| 20260831221337 | 77 | 37 | 1.7 | 6.1 | 0.00 | 0.00 | 0.00 | 35 | 1014.2 |
| 20260831215833 | 76 | 72 | 1.7 | 5.2 | 0.00 | 0.00 | 0.00 | 40 | 1014.3 |
| 20260831214834 | 77 | 336 | 0.9 | 2.6 | 0.00 | 0.00 | 0.00 | 36 | 1014.5 |
| 20260831214333 | 77 | 75 | 0.9 | 2.6 | 0.00 | 0.00 | 0.00 | 38 | 1014.5 |
| 20260831213832 | 78 | 9 | 0.0 | 1.7 | 0.00 | 0.00 | 0.00 | 38 | 1014.6 |
| 20260831213334 | 77 | 222 | 0.0 | 1.7 | 0.00 | 0.00 | 0.00 | 37 | 1014.6 |
| 20260831212832 | 76 | 94 | 0.9 | 3.5 | 0.00 | 0.00 | 0.00 | 41 | 1014.9 |
| 20260831212333 | 74 | 57 | 2.6 | 6.1 | 0.00 | 0.00 | 0.00 | 40 | 1014.9 |
| 20260831211333 | 76 | 76 | 0.9 | 4.3 | 0.00 | 0.00 | 0.00 | 38 | 1015.1 |
| 20260831210832 | 76 | 309 | 0.9 | 3.5 | 0.00 | 0.00 | 0.00 | 37 | 1015.2 |
| 20260831210331 | 75 | 52 | 0.9 | 3.5 | 0.00 | 0.00 | 0.00 | 39 | 1015.3 |
| 20260831205834 | 75 | 30 | 1.7 | 4.3 | 0.00 | 0.00 | 0.00 | 42 | 1015.4 |
| 20260831205330 | 75 | 128 | 0.9 | 4.3 | 0.00 | 0.00 | 0.00 | 38 | 1015.4 |
| 20260831204832 | 76 | 333 | 0.9 | 2.6 | 0.00 | 0.00 | 0.00 | 37 | 1015.5 |
| 20260831204333 | 76 | 211 | 0.9 | 2.6 | 0.00 | 0.00 | 0.00 | 39 | 1015.6 |